Погода в Бурунче

Россия / Оренбургская область     52°06′28″N   56°30′59″E
темп.,
°C
ветер,
м/с
пор.,
м/с
влажн.,
%
обл.,
%
осадки,
мм/ч
давл.,
гПа
погр.,
м
5 августа, чт
чт523:00+24ююв344124 0.1 101266
02:00+24ююв223998 0.0 101117
05:00+22юв2245100 0.0 101011
08:00+27юв2433100 0.0 1009167
11:00+35ю3418100 0.0 1008832
14:00+37зсз671537 0.0 10082528
17:00+35зсз5101828 0.0 10073376
20:00+33зсз582599 0.0 1007541
6 августа, пт
пт623:00+19ююв228213 1.8 101035
02:00+18с1181100 0.0 100913
05:00+17с3591100 0.0 1010112
08:00+19с487921 0.0 1011377
11:00+26с6743100 0.0 10111295
14:00+30ссз66260 0.0 10102489
17:00+30ссз76230 0.0 10102468
20:00+26ссз69300 0.0 1011755
7 августа, сб
сб723:00+20ссв5115336 0.0 1013307
02:00+16ссв336997 0.0 101444
05:00+14ссв33755 0.0 101539
08:00+18ссв355422 0.0 1016240
11:00+25с442468 0.0 10151332
14:00+29ссз551448 0.0 10141944
17:00+29с77150 0.0 10142051
20:00+25с58250 0.0 1015638
8 августа, вс
вс823:00+18ссв34420 0.0 101650
02:00+16ссв33500 0.0 101633
05:00+14ссв33575 0.0 101827
08:00+19ссв46455 0.0 1018256
11:00+25с562512 0.0 10181240
14:00+29с67190 0.0 10161862
17:00+30с78165 0.0 10162038
20:00+26ссв592276 0.0 1017510
9 августа, пн
пн923:00+17ссв354669 0.0 101873
02:00+15св2254100 0.0 101914
05:00+13св3359100 0.0 101936
08:00+18св224366 0.0 1020170
11:00+26в112464 0.0 10191123
14:00+30зсз1115100 0.0 10171823
17:00+31сз221359 0.0 10172111
20:00+27ссз2316100 0.0 101631